星链-34658 (STARLINK-34658)

导读 | 豆包AI

STARLINK-34658是美国SpaceX星链互联网卫星星座的一员,于2025年7月16日发射入轨。星链计划旨在构建全球卫星互联网,为全球偏远地区、海洋等网络覆盖盲区提供高速互联网接入服务,该卫星延续了星链星座标准化设计,加入星座后进一步拓展了星链的全球网络覆盖能力与服务容量。

基本信息
目录编号:
64802
目录名称:
STARLINK-34658
国际标识:
2025-150N
轨道中心:
EARTH
卫星名称:
星链-34658
卫星全名:
星链-34658 (STARLINK-34658)
卫星状态:
在轨 (已飞行287 天)
发射日期:
2025-07-16 UTC
国别 :
美国 (US)
星等 :
--
轨道信息
数据来源 国际轨道数据 AOE轨道数据
星历时间 2026-04-29T10:22:53+0800
10小时前
查看轨道信息
2026-04-23T01:00:00+0800
6天前
查看轨道信息
半长轴 6950.208km 6950.196km
偏心率 0.0002964 0.0002735
轨道倾角 70.003° 70.002°
近地点辐角 269.117° 276.762°
升交点赤经 7.516° 23.629°
平近点角 90.965° 180.838°
近地点 570.01km 570.158km
远地点 574.132km 573.96km
周期 96.107分钟 96.107分钟
每日圈数 14.983253 14.98329
详细信息
固有亮度:
5
最大亮度:
2.5
卫星平台:
Starlink V1.0
覆盖范围:
全球
运营商:
太空探索技术公司
运营商所在国:
美国
制造商(研发单位):
太空探索技术公司
制造商所在国:
美国
使用方式:
暂无
卫星简介
Starlink 计划是 SpaceX 推出的全球卫星互联网项目,通过发射低轨道卫星,为全球尤其是偏远地区提供高速、低延迟的互联网服务。自 2019 年起,Starlink 已部署数千颗卫星,旨在缩小全球数字鸿沟,推动互联网普及。该项目还为军事、航空等行业提供通信支持,带来广泛经济效益。
2D轨道图
3D轨道图
轨道高度分析图
轨道倾角分析图
轨道综合分析图
查看轨道综合分析图